AirNav   Everest Fuels
 
 1108 users online  

4C3 Yalesville Heliport
Yalesville, Connecticut, USA

GOING TO YALESVILLE?


FAA INFORMATION EFFECTIVE 10 SEPTEMBER 2020

Location

FAA Identifier: 4C3
Lat/Long: 41-29-30.8000N 072-48-40.2000W
41-29.513333N 072-48.670000W
41.4918889,-72.8111667
(estimated)
Elevation: 65 ft. / 20 m (estimated)
Variation: 14W (2000)
From city: 2 miles N of YALESVILLE, CT
Time zone: UTC -4 (UTC -5 during Standard Time)
Zip code: 06492

Heliport Operations

Heliport use: Open to the public
Activation date: 06/2002
Control tower: no
ARTCC: BOSTON CENTER
FSS: BRIDGEPORT FLIGHT SERVICE STATION
NOTAMs facility: BDR (NOTAM-D service available)
Attendance: MON-FRI 08:30 TO 17:00 LOCAL, ALL SATURDAY 0900-1600 LOCAL
Wind indicator: lighted
Segmented circle: no
Lights: PCL 123.50
Beacon: white-green-yellow (heliport)
ACTVT ROTG BCN - 123.50.

Heliport Communications

CTAF/UNICOM: 123.05
WX ASOS at MMK (1.3 nm NW): 134.925 (203-639-9405)
WX AWOS-AV at CT71 (13 nm N): 129.825
WX ASOS at HVN (14 nm S): PHONE 203-466-6205
WX AWOS-3PT at OXC (15 nm W): 132.975 (203-262-1190)
WX AWOS-3 at SNC (15 nm SE): 118.325 (860-526-1551)
WX ASOS at HFD (16 nm NE): PHONE 860-527-5837

Nearby radio navigation aids

VOR radial/distance  VOR name  Freq  Var
MADr346/11.9MADISON VOR/DME110.4013W
HFDr246/14.8HARTFORD VOR/DME114.9013W
BDRr047/24.4BRIDGEPORT VOR/DME108.8012W
CCCr012/33.7CALVERTON VOR/DME117.2013W
GONr300/35.5GROTON VOR/DME110.8514W
ORWr278/36.7NORWICH VOR/DME110.0014W
CMKr082/36.9CARMEL VOR/DME116.6012W
PWLr127/39.1PAWLING VOR/DME114.3012W

Heliport Services

Fuel available: 100LL JET-A
CALL IN ADVANCE FOR FUEL 203-294-8800
Parking: hangars and tiedowns
Airframe service: MAJOR
Powerplant service: MAJOR
Bottled oxygen: NONE
Bulk oxygen: NONE

Runway Information

Helipad H1

Dimensions: 65 x 65 ft. / 20 x 20 m
Surface: concrete, in good condition
Traffic pattern: leftleft
Markings: basic, in fair condition

Heliport Ownership and Management from official FAA records

Ownership: Privately-owned
Owner: UNITED CONCRETE PRODUCTS
173 CHURCH STREET, ATTEN: JONATHAN GAVIN
YALESVILLE, CT 06492
Phone 203-269-3119
Manager: ANDREW HAYDEN
AIROCEAN AVIATION, LLC, , 120 CHURCH STREET
YALESVILLE, CT 06492
Phone 203-294-8800

Heliport Operational Statistics

Aircraft operations: avg 62/month *
67% transient general aviation
33% air taxi
* for 12-month period ending 30 September 2015

Additional Remarks

PILOTS UNFAMILIAR WITH HELIPORT CONTACT 203-294-8800 PRIOR TO ARRIVAL FOR A BRIEFING ON CURRENT PROCEDURES.
FOR CD CTC YANKEE APCH AT 860-386-3597.

Instrument Procedures

There are no published instrument procedures at 4C3.

Some nearby airports with instrument procedures:

KMMK - Meriden Markham Municipal Airport (1 nm NW)
4B8 - Robertson Field Airport (12 nm N)
KHVN - Tweed-New Haven Airport (14 nm S)
KOXC - Waterbury-Oxford Airport (15 nm W)
KSNC - Chester Airport (15 nm SE)
KHFD - Hartford-Brainard Airport (16 nm NE)
 
Loc | Ops | Rwys | IFR | FBO | Links
Com | Nav | Svcs | Stats | Notes

Silver City Flying Club
 
Area around 4C3 (Yalesville Heliport)
 
Road maps at: MapQuest Bing Google
 
Aerial photo
WARNING: Photo may not be current or correct
Aerial photo of 4C3 (Yalesville Heliport)
Photo courtesy of AirOcean Aviation, LLC
Taken in October 2008
from a Schweizer 300 helicopter

Do you have a better or more recent aerial photo of Yalesville Heliport that you would like to share? If so, please send us your photo.

 
Sectional chart

 
Airport distance calculator
Flying to Yalesville Heliport? Find the distance to fly.

From to 4C3

Sunrise and sunset
Times for 29-Sep-2020
 Local
(UTC-4)
 Zulu
(UTC)
Morning civil twilight06:2010:20
Sunrise06:4810:48
Sunset18:3522:35
Evening civil twilight19:0223:02

Current date and time
Zulu (UTC)  30-Sep-2020 00:10:26
Local (UTC-4)  29-Sep-2020 20:10:26
 
METAR
KMMK 
2nm NW 
292353Z AUTO 14003KT 9SM -RA OVC009 22/20 A2980 RMK AO2 RAB19 SLP091 P0000 60001 T02170200 10239 20217 58008 TSNO
KHVN 
14nm S 
292353Z 16005KT 6SM -RA BR OVC010 23/22 A2980 RMK AO2 RAB23 SLP092 P0001 60001 T02280217 10239 20228 58008 $
KOXC 
14nm W 
292351Z 16007KT 7SM OVC005 21/21 A2982 RMK AO2 RAE2252 CIG 003V008 SLP107 60011 T02060206 10211 20206 58006
KSNC 
15nm SE 
292355Z AUTO 00000KT 9SM OVC008 21/21 A2984 RMK AO2
KHFD 
16nm NE 
292353Z 00000KT 10SM OVC011 22/20 A2980 RMK AO2 RAE02 SLP092 P0000 60002 T02220200 10256 20222 58005
TAF
KBDR 
24nm SW 
291934Z 2920/3018 19009KT P6SM VCSH BKN012 OVC040 FM292200 16008KT 6SM SHRA BR BKN008 OVC015 FM300300 16014G20KT 3SM SHRA BR BKN008 OVC010 FM300700 16018G28KT 3SM +SHRA BR OVC005 WS020/19050KT FM301200 23014G24KT 5SM SHRA BR SCT005 OVC010 FM301600 26016G26KT P6SM SCT040 BKN250
KBDL 
27nm N 
292115Z 2921/3024 20010KT 4SM -RA BR BKN022 OVC030 FM292300 17007KT P6SM VCSH OVC015 FM300400 16008KT 3SM -RA BR OVC008 FM300900 18013G33KT 3SM +RA BR OVC008 WS020/18045KT FM301100 21009KT 3SM +RA BR OVC015 FM301500 25009KT P6SM SCT020
NOTAMs
Click for the latest NOTAMs
NOTAMs are issued by the DoD/FAA and will open in a separate window not controlled by AirNav.

 

 
 

Would you like to see your business listed on this page?

 If your business provides an interesting product or service to pilots, flight crews, aircraft, or users of the Yalesville Heliport, you should consider listing it here.  To start the listing process, click on the button below
 
Add a business
 

Other Pages about Yalesville Heliport

Update a link
 
Copyright © AirNav, LLC. All rights reserved. Privacy Policy  Contact